ORBCOMM FM119 [-] (41180 NORAD) Tracking and Keplerian Element Data

This shows tracking and keplerian element data for the satellite.

Feedback or suggestion? Click here.




ElementValue
Catalog41180
NameORBCOMM FM119 [-]
Epoch Orbit13764
Epoch Day198.45522068
Epoch Year2018
RAAN198.4424
Inclination47
Eccentricity0.0001427
Argument of Perigee359.5163
Mean Anonmoly0.572
Mean Motion14.54676381
Decay Rate-9.4E-07
L11 41180U 15081B 18198.45522068 -.00000094 00000-0 16640-4 0 9993
L22 41180 47.0000 198.4424 0001427 359.5163 0.5720 14.54676381137645

Live tracking and technical data element details for ORBCOMM FM119 [-] (NORAD 41180). ORBCOMM FM119 [-] can be tracked NOW for your location showing map with azimuth and elevation plus other details from your city location.

Track the satellite on the map from your city or location and see movement details for azimuth, elevation, latitude, longitude, range, height, and movement on the map or in text.







IsCatalogInMostPopularTable: catalog: 41180, numindb: 58
Update: records affected: 1



GetName: 41180 ORBCOMM FM119 [-]

Hit Count: updated at: Thu, 19 Jul 2018 03:35:49 GMT